This is the latest recevied weather packets stored in our database for station/object KC3ROS. If no packets are shown the sender has not sent any weather packets the latest 10 day(s).
| Time | Temp. | Humidity | Pressure | Rain* | Wind** | Luminosity | Snow |
|---|---|---|---|---|---|---|---|
| 1777900383 | 13.33° C | 56% | 1009.7 hPa | 0 mm | - | 475 W/m² | - |
| 1777900080 | 13.89° C | 56% | 1009.5 hPa | 0 mm | - | 460 W/m² | - |
| 1777899776 | 13.33° C | 56% | 1009.6 hPa | 0 mm | - | 446 W/m² | - |
| 1777899473 | 12.78° C | 58% | 1009.6 hPa | 0 mm | - | 432 W/m² | - |
| 1777899171 | 13.33° C | 56% | 1009.5 hPa | 0 mm | - | 417 W/m² | - |
| 1777898869 | 13.33° C | 58% | 1009.6 hPa | 0 mm | - | 400 W/m² | - |
| 1777898566 | 13.33° C | 56% | 1009.6 hPa | 0 mm | - | 382 W/m² | - |
| 1777898263 | 12.78° C | 60% | 1009.5 hPa | 0 mm | - | 311 W/m² | - |
| 1777897960 | 12.78° C | 60% | 1009.4 hPa | 0 mm | - | 280 W/m² | - |
| 1777897656 | 12.22° C | 59% | 1009.5 hPa | 0 mm | - | 260 W/m² | - |
| 1777897353 | 12.22° C | 60% | 1009.5 hPa | 0 mm | - | 242 W/m² | - |
| 1777897048 | 11.67° C | 61% | 1009.4 hPa | 0 mm | - | 210 W/m² | - |
| 1777896745 | 11.67° C | 61% | 1009.4 hPa | 0 mm | - | 154 W/m² | - |
| 1777896443 | 11.67° C | 61% | 1009.3 hPa | 0 mm | - | 183 W/m² | - |
| 1777896140 | 11.67° C | 62% | 1009.2 hPa | 0 mm | - | 153 W/m² | - |
| 1777895838 | 11.67° C | 61% | 1009.3 hPa | 0 mm | - | 85 W/m² | - |
| 1777895535 | 11.11° C | 62% | 1009.3 hPa | 0 mm | - | 190 W/m² | - |
| 1777895232 | 10.56° C | 63% | 1009.2 hPa | 0 mm | - | 78 W/m² | - |
| 1777894930 | 10.56° C | 63% | 1009.5 hPa | 0 mm | - | 116 W/m² | - |
| 1777894627 | 10.56° C | 63% | 1009.4 hPa | 0 mm | - | 130 W/m² | - |
| 1777894324 | 10.56° C | 64% | 1009.3 hPa | 0 mm | - | 86 W/m² | - |
| 1777894021 | 10° C | 64% | 1009.6 hPa | 0 mm | - | 42 W/m² | - |
| 1777893717 | 10° C | 63% | 1009.3 hPa | 0 mm | - | 38 W/m² | - |
| 1777893414 | 10° C | 64% | 1009.4 hPa | 0 mm | - | 36 W/m² | - |
| 1777893110 | 10° C | 63% | 1009.2 hPa | 0 mm | - | 32 W/m² | - |
* Rain latest hour (hover to see other rain measurements)
** Current wind speed in m/s (hover to see current wind gust speed)